Flag for Germany Weather past 2 weeks in Rheine, North Rhine-Westphalia, Germany

Now
61 °F

Cool.


Feels Like: 61 °F
Forecast: 58 / 77 °F
Wind: 3 mph from Northeast

Location: Rheine-Bentlage

Current Time: Aug 3, 2015 at 2:48:23 AM

Latest Report: Aug 3, 2015 at 1:20 AM


Visibility: N/A

Pressure: 30.07 "Hg

Humidity: 68%

Dew point: 50 °F

Location of RheineLocation

Historic Weather in Rheine — Graph

°F

Rheine temperature yesterday

Maximum temperature yesterday: 77 °F (at 5:20 PM)
Minimum temperature yesterday: 46 °F (at 5:20 AM)
Average temperature yesterday: 64 °F

Past Weeks' High & Low Weather Summary

 TemperatureHumidityPressure
High79 °F (Jul 24, 4:20 PM)100% (Jul 20, 4:20 AM)30.15 "Hg (Jul 20, 4:20 AM)
Low46 °F (Jul 31, 6:20 AM)34% (Aug 2, 4:20 PM)29.45 "Hg (Jul 25, 10:20 AM)
Average62 °F73%29.86 "Hg
* Reported Jul 19 1:20 AM — Aug 3 1:20 AM, Rheine, Weather by CustomWeather, © 2015

Note: Actual official high and low records may vary slightly from our data, if they occured in-between our weather recording intervals... More about our weather records

Advertising

Rheine weather history for previous 24 hours

 ConditionsComfort  
Time TempWeatherWind HumidityBarometerVisibility
1:20 AM
Mon, Aug 3
61 °FCool.3 mph68%30.07 "HgN/A
12:20 AM63 °FMild.3 mph64%30.07 "HgN/A
11:20 PM
Sun, Aug 2
64 °FMild.5 mph60%30.07 "HgN/A
10:20 PM66 °FMild.6 mph56%30.07 "HgN/A
9:20 PM68 °FMild.2 mph53%30.07 "HgN/A
8:20 PM73 °FMild.5 mph44%30.07 "HgN/A
7:20 PM75 °FMild.6 mph41%30.09 "HgN/A
6:20 PM77 °FPleasantly warm.5 mph36%30.09 "HgN/A
5:20 PM77 °FPleasantly warm.3 mph34%30.12 "HgN/A
4:20 PM75 °FMild.1 mph34%30.12 "HgN/A
3:20 PM75 °FMild.2 mph36%30.12 "HgN/A
2:20 PM73 °FMild.3 mph38%30.15 "HgN/A
1:20 PM72 °FMild.5 mph41%30.15 "HgN/A
12:20 PM72 °FMild.3 mph44%30.15 "HgN/A
11:20 AM70 °FMild.5 mph46%30.15 "HgN/A
10:20 AM68 °FMild.6 mph49%30.15 "HgN/A
9:20 AM64 °FMild.No wind68%30.12 "HgN/A
8:20 AM59 °FCool.No wind77%30.12 "HgN/A
7:20 AM50 °FCool.No wind100%30.12 "HgN/A
6:20 AM46 °FCool.No wind100%30.12 "HgN/A
5:20 AM46 °FCool.No wind100%30.09 "HgN/A
4:20 AM48 °FCool.No wind94%30.09 "HgN/A
3:20 AM50 °FCool.No wind94%30.09 "HgN/A
2:20 AM50 °FCool.No wind94%30.09 "HgN/A
Weather by CustomWeather, © 2015

See weather overviewHow to use our weather pages